Content
SEND FEEDBACK

Daily
Averages
Monthly
Summary
Switzerland

GENEVA, SWITZERLAND


Home > Europe > Switzerland
Elevation: 1364 feet     Latitude: 46 15N     Longitude: 006 08E

WEATHER
 
SELECT A DAY
Number of Records: 313,859;   Date Range: 7/1/96 - 10/30/14
 
SHARE

PRINT THIS DATA

[ ← Previous Day ]
WEATHER ALMANAC - APRIL 7, 2014
[ Next Day → ]
[ °C ]   °F
Weather ElementAverageHighLow
Temperature59.6 °F75.2 °F (4:50 pm)42.8 °F (6:50 am)
Dewpoint44.7 °F50 °F (2:50 pm)40 °F (11:00 pm)
Humidity59.8 %100 % (6:50 am)20 % (4:00 pm)
Barometer30.07 in30.16 in (2:00 am)29.94 in (5:00 pm)
Wind Speed4.9 mph15 mph (4:20 pm)
Weather ElementAverage
Visibility11.6 mi
Wind DirectionSE (129.6 °)

Weather ElementTotal
Precipitation---
Heating Degree Days6 (Base 65)
Growing Degree Days9 (Base 50)
Averaged from 70 records on April 7, 2014
WEATHER CONDITIONS BREAKOUT
WIND DIRECTION BREAKOUT
WEATHER BY HOUR - APRIL 7, 2014
[ °C ]   °F
Local TimeTemperatureDewpointHumidityBarometerVisibilityWind DirectionWind SpeedGust SpeedPrecipitationEventsConditions
12:20 AM50.0 °F46.4 °F87 %30.12 inNNW (330°)1.2 mphClear
12:50 AM50.0 °F46.4 °F87 %30.12 inCalmClear
1:00 AM50.0 °F45.0 °F78 %30.15 inWNW (300°)1.2 mph
1:20 AM48.2 °F46.4 °F93 %30.12 inCalmClear
1:50 AM48.2 °F46.4 °F93 %30.12 inCalmClear
2:00 AM49.0 °F44.0 °F78 %30.16 in19.0 miWSW (240°)1.2 mphClear
2:20 AM48.2 °F44.6 °F87 %30.12 inCalmClear
2:50 AM46.4 °F44.6 °F93 %30.12 inCalmClear
3:00 AM47.0 °F44.0 °F84 %30.16 inNNW (330°)1.2 mph
3:50 AM46.4 °F42.8 °F87 %30.12 inCalmClear
4:00 AM46.0 °F43.0 °F85 %30.15 inNNW (330°)1.2 mph
4:20 AM44.6 °F42.8 °F93 %30.12 inCalmClear
4:50 AM44.6 °F42.8 °F93 %30.12 inCalmClear
5:00 AM46.0 °F42.0 °F80 %30.14 in12.0 miWNW (290°)1.2 mphClear
5:20 AM44.6 °F42.8 °F93 %30.12 inCalmClear
5:50 AM44.6 °F42.8 °F93 %30.12 inCalmClear
6:00 AM45.0 °F42.0 °F85 %30.15 inWNW (300°)1.2 mph
6:20 AM44.6 °F42.8 °F93 %30.12 inCalmClear
6:50 AM42.8 °F42.8 °F100 %30.12 inVariable1.2 mphClear
7:00 AM44.0 °F41.0 °F87 %30.15 inEast (100°)1.2 mph
7:20 AM44.6 °F42.8 °F93 %30.12 inCalmClear
7:50 AM44.6 °F42.8 °F93 %30.12 inCalmClear
8:00 AM47.0 °F43.0 °F81 %30.16 in14.0 miNNW (340°)1.2 mphClear
8:20 AM48.2 °F44.6 °F87 %30.12 inCalmClear
8:50 AM51.8 °F46.4 °F82 %30.12 inCalmClear
9:00 AM51.0 °F47.0 °F80 %30.15 inNNE (30°)2.3 mph
9:20 AM53.6 °F48.2 °F82 %30.12 inCalmClear
9:50 AM55.4 °F48.2 °F77 %30.12 inCalmClear
10:00 AM56.0 °F47.0 °F64 %30.13 inNE (40°)2.3 mph
10:20 AM59.0 °F48.2 °F67 %30.12 inVariable2.3 mphClear
10:50 AM60.8 °F46.4 °F59 %30.12 inESE (120°)3.5 mphClear
11:00 AM59.0 °F45.0 °F48 %30.12 in12.0 miSE (130°)4.6 mphClear
11:20 AM60.8 °F46.4 °F59 %30.12 inVariable3.5 mphClear
11:50 AM62.6 °F48.2 °F59 %30.12 inVariable2.3 mphClear
12:00 PM62.0 °F46.0 °F46 %30.10 inNNE (30°)3.5 mph
12:20 PM62.6 °F46.4 °F55 %30.09 inVariable3.5 mphClear
12:50 PM64.4 °F48.2 °F56 %30.09 inVariable2.3 mphClear
1:00 PM62.0 °F45.0 °F43 %30.07 inNE (50°)1.2 mph
1:20 PM66.2 °F48.2 °F52 %30.09 inVariable3.5 mphClear
1:50 PM66.2 °F48.2 °F52 %30.06 inENE (70°)4.6 mphClear
2:00 PM66.0 °F48.0 °F41 %30.05 in17.0 miEast (80°)5.8 mphClear
2:20 PM68.0 °F48.2 °F49 %30.06 inVariable3.5 mphClear
2:50 PM69.8 °F50.0 °F49 %30.04 inVariable2.3 mphClear
3:00 PM70.0 °F47.0 °F33 %30.01 inSW (230°)5.8 mph
3:20 PM71.6 °F46.4 °F41 %30.04 inSSW (210°)6.9 mphClear
3:50 PM73.4 °F41.0 °F31 %30.01 inSW (220°)10.4 mphClear
4:00 PM74.0 °F41.0 °F20 %29.96 inSW (230°)12.7 mph
4:20 PM73.4 °F42.8 °F33 %30.01 inSW (220°)15.0 mphClear
4:50 PM75.2 °F42.8 °F31 %30.01 inSW (220°)13.8 mphClear
5:00 PM74.0 °F42.0 °F21 %29.94 in19.0 miSW (220°)13.8 mphScattered Clouds
5:20 PM73.4 °F42.8 °F33 %30.01 inSW (220°)13.8 mphClear
5:50 PM75.2 °F42.8 °F31 %29.98 inSSW (210°)13.8 mphClear
6:00 PM74.0 °F42.0 °F21 %29.94 inSouth (190°)13.8 mph
6:20 PM73.4 °F44.6 °F36 %29.98 inSSW (210°)13.8 mphClear
6:50 PM73.4 °F42.8 °F33 %29.98 inSW (220°)10.4 mphClear
7:00 PM72.0 °F44.0 °F25 %29.95 inSSW (200°)10.4 mph
7:20 PM71.6 °F44.6 °F38 %29.98 inSSW (210°)9.2 mphClear
7:50 PM71.6 °F44.6 °F38 %30.01 inSW (220°)8.1 mphClear
8:00 PM70.0 °F43.0 °F27 %29.96 in19.0 miSW (220°)9.2 mphScattered Clouds
8:20 PM69.8 °F44.6 °F40 %30.01 inSSW (200°)10.4 mphClear
8:50 PM68.0 °F46.4 °F46 %30.01 in6.2 miSW (230°)6.9 mphMostly Cloudy
9:00 PM65.0 °F46.0 °F38 %29.99 inWSW (240°)5.8 mph
9:20 PM66.2 °F46.4 °F49 %30.04 in6.2 miWSW (250°)5.8 mphMostly Cloudy
9:50 PM66.2 °F46.4 °F49 %30.04 in6.2 miSW (220°)10.4 mphMostly Cloudy
10:00 PM66.0 °F44.0 °F33 %30.01 inSW (220°)10.4 mph
10:20 PM66.2 °F44.6 °F46 %30.04 in6.2 miSSW (210°)8.1 mphMostly Cloudy
10:50 PM68.0 °F41.0 °F37 %30.04 in6.2 miSW (230°)9.2 mphScattered Clouds
11:00 PM67.0 °F40.0 °F26 %30.01 in19.0 miSW (230°)11.5 mphPartly Cloudy
11:20 PM64.4 °F42.8 °F45 %30.04 in6.2 miWSW (240°)10.4 mphPartly Cloudy
11:50 PM66.2 °F42.8 °F43 %30.04 in6.2 miWSW (240°)11.5 mphMostly Cloudy
Hourly data recorded from LSGG, located miles away from Geneva, Switzerland







STORIES FROM OUR PARTNERS